Oceana NAS, VA

10:22 PM EDT on June 22, 2017 (GMT -0400)
Oceana Naval Air Station

Weather History for KNTU - October, 2012

Change the Weather History Date:

Sunday, October 7, 2012

  Actual Average Record
Temperature  
Mean Temperature 60 °F -  
Max Temperature 66 °F 71 °F 90 °F (2007)
Min Temperature 55 °F 54 °F 46 °F (1999)
Degree Days  
Heating Degree Days 4    
Growing Degree Days 10 (Base 50)    
Moisture  
Dew Point 54 °F    
Average Humidity 82    
Maximum Humidity 97    
Minimum Humidity 60    
Precipitation  
Precipitation 0.38 in - - ()
Sea Level Pressure  
Sea Level Pressure 30.04 in    
Wind  
Wind Speed 12 mph (North)    
Max Wind Speed 22 mph    
Max Gust Speed 28 mph    
Visibility 8 miles    
Events Rain    
Averages and records for this station are not official NWS values.
T = Trace of Precipitation, MM = Missing Value Source: NWS Daily Summary

Daily Weather History Graph

Daily Weather History Graph

Search for Another Location

Airport or City:

Trip Planner

Search our weather history database for the weather conditions in past years. The results will help you decide how hot, cold, wet, or windy it might be!

Date:

Astronomy

Oct. 07, 2012 Rise Set
Actual Time 7:04 AM EDT 6:38 PM EDT
Civil Twilight 6:39 AM EDT 7:03 PM EDT
Nautical Twilight 6:09 AM EDT 7:33 PM EDT
Astronomical Twilight 5:38 AM EDT 8:03 PM EDT
Moon 11:53 PM EDT (10/7) 1:34 PM EDT (10/7)
Length of Visible Light 12h 24m
Length of Day
11h 33m
Waning Gibbous, 56% of the Moon is Illuminated
Oct 7
Waning Gibbous
Oct 8
Last Quarter
Oct 15
New
Oct 21
First Quarter
Oct 29
Full

Hourly Weather History & Observations

Time (EDT) Temp. Dew Point Humidity Pressure Visibility Wind Dir Wind Speed Gust Speed Precip Events Conditions
12:56 AM 66.0 °F 52.0 °F 60% 29.99 in 10.0 mi North 13.8 mph - N/A   Mostly Cloudy
1:56 AM 64.9 °F 51.1 °F 61% 29.99 in 10.0 mi NNE 10.4 mph - N/A   Mostly Cloudy
2:56 AM 64.0 °F 52.0 °F 65% 29.99 in 10.0 mi NNE 12.7 mph - N/A   Mostly Cloudy
3:56 AM 63.0 °F 51.1 °F 65% 30.00 in 10.0 mi NE 12.7 mph - N/A   Overcast
4:56 AM 63.0 °F 51.1 °F 65% 30.00 in 10.0 mi NE 11.5 mph 19.6 mph N/A   Mostly Cloudy
5:47 AM 64.4 °F 51.8 °F 64% 30.02 in 10.0 mi North 9.2 mph - 0.00 in Rain Light Rain
5:56 AM 63.0 °F 53.1 °F 70% 30.04 in 10.0 mi North 13.8 mph - 0.00 in Rain Light Rain
6:28 AM 60.8 °F 48.2 °F 63% 30.03 in 10.0 mi North 16.1 mph - 0.00 in   Overcast
6:56 AM 59.0 °F 48.9 °F 69% 30.03 in 10.0 mi NNE 12.7 mph - 0.00 in Rain Light Rain
7:25 AM 59.0 °F 48.2 °F 67% 30.01 in 10.0 mi NNE 15.0 mph 21.9 mph 0.00 in   Overcast
7:56 AM 59.0 °F 51.1 °F 75% 30.03 in 10.0 mi NNE 17.3 mph - 0.00 in   Overcast
8:56 AM 60.1 °F 53.1 °F 78% 30.03 in 10.0 mi NNE 17.3 mph - N/A   Overcast
9:56 AM 61.0 °F 54.0 °F 78% 30.05 in 10.0 mi NNE 13.8 mph - N/A   Overcast
10:56 AM 62.1 °F 55.9 °F 80% 30.05 in 10.0 mi North 8.1 mph - N/A   Overcast
11:40 AM 59.0 °F 55.4 °F 88% 30.06 in 10.0 mi NNW 21.9 mph 27.6 mph 0.00 in Rain Light Rain
11:56 AM 57.9 °F 54.0 °F 87% 30.06 in 4.0 mi North 15.0 mph 24.2 mph 0.03 in Rain Light Rain
12:10 PM 57.2 °F 53.6 °F 88% 30.06 in 3.0 mi North 13.8 mph - 0.03 in Rain Rain
12:56 PM 59.0 °F 57.0 °F 93% 30.03 in 9.0 mi NNE 11.5 mph - 0.29 in   Mostly Cloudy
1:56 PM 60.1 °F 57.0 °F 90% 30.01 in 10.0 mi NE 8.1 mph - N/A   Overcast
2:56 PM 57.9 °F 55.0 °F 90% 30.00 in 10.0 mi NNE 11.5 mph - N/A   Overcast
3:56 PM 57.9 °F 55.0 °F 90% 30.00 in 10.0 mi North 8.1 mph - N/A   Overcast
4:56 PM 57.9 °F 55.9 °F 93% 29.99 in 10.0 mi North 5.8 mph - 0.00 in   Light Drizzle
5:56 PM 57.9 °F 55.9 °F 93% 30.00 in 4.0 mi NNW 8.1 mph - 0.00 in   Light Drizzle
6:39 PM 57.2 °F 55.4 °F 94% 30.01 in 3.0 mi NNW 6.9 mph - 0.01 in Rain Light Rain
6:56 PM 57.9 °F 57.0 °F 97% 30.03 in 3.0 mi NNW 9.2 mph - 0.02 in Rain Light Rain
7:24 PM 59.0 °F 57.2 °F 94% 30.03 in 3.0 mi NNW 9.2 mph - 0.01 in   Light Drizzle
7:32 PM 59.0 °F 57.2 °F 94% 30.05 in 3.0 mi NW 10.4 mph - 0.01 in   Light Drizzle
7:56 PM 59.0 °F 57.0 °F 93% 30.05 in 4.0 mi NW 12.7 mph - 0.01 in   Light Drizzle
8:24 PM 57.2 °F 55.4 °F 94% 30.06 in 3.0 mi NW 15.0 mph 24.2 mph 0.01 in   Light Drizzle
8:56 PM 57.0 °F 55.0 °F 93% 30.09 in 3.0 mi NW 13.8 mph 24.2 mph 0.02 in   Light Drizzle
9:56 PM 55.0 °F 53.1 °F 93% 30.13 in 6.0 mi NNW 13.8 mph 21.9 mph 0.01 in   Light Drizzle
10:11 PM 55.4 °F 51.8 °F 88% 30.11 in 7.0 mi North 13.8 mph - 0.00 in   Overcast
10:56 PM 55.9 °F 52.0 °F 87% 30.12 in 10.0 mi NNW 10.4 mph - 0.00 in   Overcast
11:50 PM 57.2 °F 51.8 °F 82% 30.12 in 10.0 mi NNW 6.9 mph - N/A   Overcast
11:56 PM 57.0 °F 52.0 °F 83% 30.13 in 10.0 mi North 8.1 mph - N/A   Overcast